Location: Unspecified
(0.0000°N, 0.0000°E)
Time: 15:12:51
(UTC+00:00)

IRIDIUM 114 - Pass Details

Date: 21 November 2025
Orbit: 776 x 779 km, 86.4° (Epoch: 12 December)

Event Time Altitude Azimuth Distance (km) Brightness Sun altitude
Exits shadow 19:52:33 45° 313° (NW) 1,051 5.0 -29.5°
Maximum altitude 19:53:41 54° 271° (W) 936 4.9 -29.8°
Drops below altitude 10° 19:58:45 10° 193° (SSW) 2,325 7.2 -30.9°
Sets 20:01:09 0° 189° (S) 3,255 8.0 -31.5°
